Port Hope, MI

12:37 AM EDT on May 27, 2018 (GMT -0400)
Port Hope

Weather History for KP58 - April, 2012

Change the Weather History Date:

Wednesday, April 18, 2012

  Actual Average Record
Temperature  
Mean Temperature 44 °F -  
Max Temperature 59 °F 49 °F 84 °F (2002)
Min Temperature 30 °F 35 °F 27 °F (1997)
Degree Days  
Heating Degree Days 20    
Moisture  
Dew Point 33 °F    
Average Humidity 62    
Maximum Humidity 92    
Minimum Humidity 44    
Precipitation  
Precipitation 0.00 in - - ()
Sea Level Pressure  
Sea Level Pressure 30.17 in    
Wind  
Wind Speed 9 mph (SE)    
Max Wind Speed 22 mph    
Max Gust Speed 25 mph    
Averages and records for this station are not official NWS values.
T = Trace of Precipitation, MM = Missing Value Source: NWS Daily Summary

Daily Weather History Graph

Daily Weather History Graph

Search for Another Location

Airport or City:

Astronomy

Apr. 18, 2012 Rise Set
Actual Time 6:42 AM EDT 8:19 PM EDT
Civil Twilight 6:11 AM EDT 8:49 PM EDT
Nautical Twilight 5:34 AM EDT 9:26 PM EDT
Astronomical Twilight 4:55 AM EDT 10:06 PM EDT
Moon 5:11 AM EDT (4/18) 6:05 PM EDT (4/18)
Length of Visible Light 14h 38m
Length of Day
13h 37m
Waning Crescent, 6% of the Moon is Illuminated
Apr 18
Waning Crescent
Apr 21
New
Apr 29
First Quarter
May 5
Full
May 12
Last Quarter

Hourly Weather History & Observations

Time (EDT) Temp. Windchill Dew Point Humidity Pressure Visibility Wind Dir Wind Speed Gust Speed Precip Events Conditions
12:51 AM 37.9 °F 29.6 °F 32.0 °F 79% 30.36 in - East 13.8 mph - N/A   Unknown
1:51 AM 37.9 °F 30.0 °F 30.9 °F 76% 30.35 in - ESE 12.7 mph - N/A   Unknown
2:51 AM 34.0 °F 31.0 °F 28.9 °F 82% 30.35 in - SSE 3.5 mph - N/A   Unknown
3:51 AM 32.0 °F 28.7 °F 28.9 °F 88% 30.35 in - SSE 3.5 mph - N/A   Unknown
4:51 AM 30.9 °F - 28.9 °F 92% 30.35 in - Calm Calm - N/A   Unknown
5:51 AM 32.0 °F - 28.0 °F 85% 30.34 in - Calm Calm - N/A   Unknown
6:51 AM 34.0 °F 31.0 °F 28.0 °F 79% 30.33 in - SSE 3.5 mph - N/A   Unknown
7:51 AM 37.9 °F 34.4 °F 28.9 °F 70% 30.31 in - SSE 4.6 mph - N/A   Unknown
8:51 AM 42.1 °F 38.4 °F 28.9 °F 60% 30.29 in - SSE 5.8 mph - N/A   Unknown
9:51 AM 45.0 °F 39.7 °F 28.0 °F 52% 30.28 in - SE 10.4 mph 20.7 mph N/A   Unknown
10:51 AM 48.0 °F - 30.0 °F 50% 30.27 in - SSE 6.9 mph 16.1 mph N/A   Unknown
11:51 AM 51.1 °F - 33.1 °F 50% 30.24 in - SE 12.7 mph - N/A   Unknown
12:51 PM 48.9 °F - 37.0 °F 64% 30.21 in - ESE 21.9 mph - N/A   Unknown
1:51 PM 50.0 °F - 35.1 °F 57% 30.16 in - SE 17.3 mph 24.2 mph N/A   Unknown
2:51 PM 52.0 °F - 37.0 °F 57% 30.12 in - SE 17.3 mph 25.3 mph N/A   Unknown
3:51 PM 54.0 °F - 37.0 °F 53% 30.08 in - SE 13.8 mph 23.0 mph N/A   Unknown
4:51 PM 55.9 °F - 37.9 °F 51% 30.04 in - SE 11.5 mph 23.0 mph N/A   Unknown
5:51 PM 57.0 °F - 37.9 °F 49% 29.99 in - SE 12.7 mph 21.9 mph N/A   Unknown
6:51 PM 59.0 °F - 37.0 °F 44% 29.96 in - SSE 9.2 mph 16.1 mph N/A   Unknown
7:51 PM 57.0 °F - 36.0 °F 45% 29.96 in - SSE 8.1 mph - N/A   Unknown
8:51 PM 55.0 °F - 36.0 °F 49% 29.96 in - South 9.2 mph - N/A   Unknown
9:51 PM 54.0 °F - 36.0 °F 51% 29.96 in - Variable 6.9 mph - N/A   Unknown
10:51 PM 54.0 °F - 36.0 °F 51% 29.93 in - Variable 5.8 mph - N/A   Unknown
11:51 PM 55.9 °F - 36.0 °F 47% 29.91 in - Variable 6.9 mph - N/A   Unknown